owner,sensor,date,latitude,longitude,vertical_datum,sea_water_practical_salinity,qcFlag 
ENP,ioos.station.NOAA.NDBC:GBIF1:1,2017-11-01T00:00:00Z,25.3780,-81.0290,1.5,6.76,1111122 
ENP,ioos.station.NOAA.NDBC:GBIF1:1,2017-11-01T01:00:00Z,25.3780,-81.0290,1.5,6.8,1111122 
ENP,ioos.station.NOAA.NDBC:GBIF1:1,2017-11-01T03:00:00Z,25.3780,-81.0290,1.5,6.37,1111122 
ENP,ioos.station.NOAA.NDBC:GBIF1:1,2017-11-01T04:00:00Z,25.3780,-81.0290,1.5,4.37,1111122 
ENP,ioos.station.NOAA.NDBC:GBIF1:1,2017-11-01T07:00:00Z,25.3780,-81.0290,1.5,2.16,1111122 
ENP,ioos.station.NOAA.NDBC:GBIF1:1,2017-11-01T08:00:00Z,25.3780,-81.0290,1.5,2.28,1111122 
ENP,ioos.station.NOAA.NDBC:GBIF1:1,2017-11-01T09:00:00Z,25.3780,-81.0290,1.5,2.43,1111122 
ENP,ioos.station.NOAA.NDBC:GBIF1:1,2017-11-01T12:00:00Z,25.3780,-81.0290,1.5,3.37,1111122 
ENP,ioos.station.NOAA.NDBC:GBIF1:1,2017-11-01T13:00:00Z,25.3780,-81.0290,1.5,3.65,1111122 
ENP,ioos.station.NOAA.NDBC:GBIF1:1,2017-11-01T14:00:00Z,25.3780,-81.0290,1.5,3.07,1111122 
ENP,ioos.station.NOAA.NDBC:GBIF1:1,2017-11-01T15:00:00Z,25.3780,-81.0290,1.5,1.87,1111122 
ENP,ioos.station.NOAA.NDBC:GBIF1:1,2017-11-01T16:00:00Z,25.3780,-81.0290,1.5,0.88,1111122 
ENP,ioos.station.NOAA.NDBC:GBIF1:1,2017-11-01T17:00:00Z,25.3780,-81.0290,1.5,0.98,1111122 
ENP,ioos.station.NOAA.NDBC:GBIF1:1,2017-11-01T18:00:00Z,25.3780,-81.0290,1.5,2.1,1111122 
ENP,ioos.station.NOAA.NDBC:GBIF1:1,2017-11-01T19:00:00Z,25.3780,-81.0290,1.5,2.94,1111122 
ENP,ioos.station.NOAA.NDBC:GBIF1:1,2017-11-01T20:00:00Z,25.3780,-81.0290,1.5,3.17,1111122 
ENP,ioos.station.NOAA.NDBC:GBIF1:1,2017-11-01T21:00:00Z,25.3780,-81.0290,1.5,3.2,1111122 
ENP,ioos.station.NOAA.NDBC:GBIF1:1,2017-11-01T22:00:00Z,25.3780,-81.0290,1.5,3.2,1111122 
ENP,ioos.station.NOAA.NDBC:GBIF1:1,2017-11-01T23:00:00Z,25.3780,-81.0290,1.5,3.22,1111122 
ENP,ioos.station.NOAA.NDBC:GBIF1:1,2017-11-02T00:00:00Z,25.3780,-81.0290,1.5,3.29,1111122 
ENP,ioos.station.NOAA.NDBC:GBIF1:1,2017-11-02T01:00:00Z,25.3780,-81.0290,1.5,3.35,1111122 
ENP,ioos.station.NOAA.NDBC:GBIF1:1,2017-11-02T03:00:00Z,25.3780,-81.0290,1.5,1.83,1111122 
ENP,ioos.station.NOAA.NDBC:GBIF1:1,2017-11-02T04:00:00Z,25.3780,-81.0290,1.5,0.9,1111122 
ENP,ioos.station.NOAA.NDBC:GBIF1:1,2017-11-02T06:00:00Z,25.3780,-81.0290,1.5,4.29,1111122 
ENP,ioos.station.NOAA.NDBC:GBIF1:1,2017-11-02T07:00:00Z,25.3780,-81.0290,1.5,6.22,1111122 
ENP,ioos.station.NOAA.NDBC:GBIF1:1,2017-11-02T08:00:00Z,25.3780,-81.0290,1.5,6.92,1111122 
ENP,ioos.station.NOAA.NDBC:GBIF1:1,2017-11-02T09:00:00Z,25.3780,-81.0290,1.5,6.98,1111122 
ENP,ioos.station.NOAA.NDBC:GBIF1:1,2017-11-02T11:00:00Z,25.3780,-81.0290,1.5,7.01,1111122 
ENP,ioos.station.NOAA.NDBC:GBIF1:1,2017-11-02T12:00:00Z,25.3780,-81.0290,1.5,7.03,1111122 
ENP,ioos.station.NOAA.NDBC:GBIF1:1,2017-11-02T13:00:00Z,25.3780,-81.0290,1.5,7.03,1111122 
ENP,ioos.station.NOAA.NDBC:GBIF1:1,2017-11-02T14:00:00Z,25.3780,-81.0290,1.5,6.93,1111122 
ENP,ioos.station.NOAA.NDBC:GBIF1:1,2017-11-02T15:00:00Z,25.3780,-81.0290,1.5,6.87,1111122 
ENP,ioos.station.NOAA.NDBC:GBIF1:1,2017-11-02T16:00:00Z,25.3780,-81.0290,1.5,6.62,1111122 
ENP,ioos.station.NOAA.NDBC:GBIF1:1,2017-11-02T17:00:00Z,25.3780,-81.0290,1.5,1.21,1111122 
ENP,ioos.station.NOAA.NDBC:GBIF1:1,2017-11-02T18:00:00Z,25.3780,-81.0290,1.5,3.71,1111122 
ENP,ioos.station.NOAA.NDBC:GBIF1:1,2017-11-02T19:00:00Z,25.3780,-81.0290,1.5,7.13,1111122 
ENP,ioos.station.NOAA.NDBC:GBIF1:1,2017-11-02T20:00:00Z,25.3780,-81.0290,1.5,8.77,1111122 
ENP,ioos.station.NOAA.NDBC:GBIF1:1,2017-11-02T21:00:00Z,25.3780,-81.0290,1.5,9.02,1111122 
ENP,ioos.station.NOAA.NDBC:GBIF1:1,2017-11-02T22:00:00Z,25.3780,-81.0290,1.5,9.02,1111122 
ENP,ioos.station.NOAA.NDBC:GBIF1:1,2017-11-02T23:00:00Z,25.3780,-81.0290,1.5,9.02,1111122 
ENP,ioos.station.NOAA.NDBC:GBIF1:1,2017-11-03T00:00:00Z,25.3780,-81.0290,1.5,9.02,1111122 
ENP,ioos.station.NOAA.NDBC:GBIF1:1,2017-11-03T01:00:00Z,25.3780,-81.0290,1.5,9.02,1111122 
ENP,ioos.station.NOAA.NDBC:GBIF1:1,2017-11-03T03:00:00Z,25.3780,-81.0290,1.5,9.02,1111122 
ENP,ioos.station.NOAA.NDBC:GBIF1:1,2017-11-03T04:00:00Z,25.3780,-81.0290,1.5,9.02,1111122 
ENP,ioos.station.NOAA.NDBC:GBIF1:1,2017-11-03T06:00:00Z,25.3780,-81.0290,1.5,4.69,1111122 
ENP,ioos.station.NOAA.NDBC:GBIF1:1,2017-11-03T07:00:00Z,25.3780,-81.0290,1.5,7.72,1111122 
ENP,ioos.station.NOAA.NDBC:GBIF1:1,2017-11-03T08:00:00Z,25.3780,-81.0290,1.5,9.59,1111122 
ENP,ioos.station.NOAA.NDBC:GBIF1:1,2017-11-03T09:00:00Z,25.3780,-81.0290,1.5,9.72,1111122 
ENP,ioos.station.NOAA.NDBC:GBIF1:1,2017-11-03T11:00:00Z,25.3780,-81.0290,1.5,9.72,1111122 
ENP,ioos.station.NOAA.NDBC:GBIF1:1,2017-11-03T12:00:00Z,25.3780,-81.0290,1.5,9.72,1111122 
ENP,ioos.station.NOAA.NDBC:GBIF1:1,2017-11-03T13:00:00Z,25.3780,-81.0290,1.5,9.59,1111122 
ENP,ioos.station.NOAA.NDBC:GBIF1:1,2017-11-03T14:00:00Z,25.3780,-81.0290,1.5,9.59,1111122 
ENP,ioos.station.NOAA.NDBC:GBIF1:1,2017-11-03T15:00:00Z,25.3780,-81.0290,1.5,9.59,1111122 
ENP,ioos.station.NOAA.NDBC:GBIF1:1,2017-11-03T16:00:00Z,25.3780,-81.0290,1.5,9.59,1111122 
ENP,ioos.station.NOAA.NDBC:GBIF1:1,2017-11-03T17:00:00Z,25.3780,-81.0290,1.5,9.59,1111122 
ENP,ioos.station.NOAA.NDBC:GBIF1:1,2017-11-03T18:00:00Z,25.3780,-81.0290,1.5,3.29,1111122 
ENP,ioos.station.NOAA.NDBC:GBIF1:1,2017-11-03T19:00:00Z,25.3780,-81.0290,1.5,4.75,1111122 
ENP,ioos.station.NOAA.NDBC:GBIF1:1,2017-11-03T20:00:00Z,25.3780,-81.0290,1.5,8.03,1111122 
ENP,ioos.station.NOAA.NDBC:GBIF1:1,2017-11-03T21:00:00Z,25.3780,-81.0290,1.5,9.59,1111122 
ENP,ioos.station.NOAA.NDBC:GBIF1:1,2017-11-03T22:00:00Z,25.3780,-81.0290,1.5,9.72,1111122 
ENP,ioos.station.NOAA.NDBC:GBIF1:1,2017-11-03T23:00:00Z,25.3780,-81.0290,1.5,9.78,1111122 
ENP,ioos.station.NOAA.NDBC:GBIF1:1,2017-11-04T00:00:00Z,25.3780,-81.0290,1.5,9.78,1111122 
ENP,ioos.station.NOAA.NDBC:GBIF1:1,2017-11-04T01:00:00Z,25.3780,-81.0290,1.5,9.84,1111122 
ENP,ioos.station.NOAA.NDBC:GBIF1:1,2017-11-04T04:00:00Z,25.3780,-81.0290,1.5,9.78,1111122 
ENP,ioos.station.NOAA.NDBC:GBIF1:1,2017-11-04T07:00:00Z,25.3780,-81.0290,1.5,7.83,1111122 
ENP,ioos.station.NOAA.NDBC:GBIF1:1,2017-11-04T08:00:00Z,25.3780,-81.0290,1.5,10.55,1111122 
ENP,ioos.station.NOAA.NDBC:GBIF1:1,2017-11-04T09:00:00Z,25.3780,-81.0290,1.5,11.26,1111122 
ENP,ioos.station.NOAA.NDBC:GBIF1:1,2017-11-04T11:00:00Z,25.3780,-81.0290,1.5,10.74,1111122 
ENP,ioos.station.NOAA.NDBC:GBIF1:1,2017-11-04T12:00:00Z,25.3780,-81.0290,1.5,10.68,1111122 
ENP,ioos.station.NOAA.NDBC:GBIF1:1,2017-11-04T13:00:00Z,25.3780,-81.0290,1.5,10.29,1111122 
ENP,ioos.station.NOAA.NDBC:GBIF1:1,2017-11-04T14:00:00Z,25.3780,-81.0290,1.5,10.1,1111122 
ENP,ioos.station.NOAA.NDBC:GBIF1:1,2017-11-04T15:00:00Z,25.3780,-81.0290,1.5,9.97,1111122 
ENP,ioos.station.NOAA.NDBC:GBIF1:1,2017-11-04T16:00:00Z,25.3780,-81.0290,1.5,9.91,1111122 
ENP,ioos.station.NOAA.NDBC:GBIF1:1,2017-11-04T17:00:00Z,25.3780,-81.0290,1.5,9.84,1111122 
ENP,ioos.station.NOAA.NDBC:GBIF1:1,2017-11-04T18:00:00Z,25.3780,-81.0290,1.5,9.72,1111122 
ENP,ioos.station.NOAA.NDBC:GBIF1:1,2017-11-04T19:00:00Z,25.3780,-81.0290,1.5,2.07,1111122 
ENP,ioos.station.NOAA.NDBC:GBIF1:1,2017-11-04T20:00:00Z,25.3780,-81.0290,1.5,5.31,1111122 
ENP,ioos.station.NOAA.NDBC:GBIF1:1,2017-11-04T21:00:00Z,25.3780,-81.0290,1.5,9.27,1111122 
ENP,ioos.station.NOAA.NDBC:GBIF1:1,2017-11-04T22:00:00Z,25.3780,-81.0290,1.5,10.36,1111122 
ENP,ioos.station.NOAA.NDBC:GBIF1:1,2017-11-04T23:00:00Z,25.3780,-81.0290,1.5,9.91,1111122 
ENP,ioos.station.NOAA.NDBC:GBIF1:1,2017-11-05T00:00:00Z,25.3780,-81.0290,1.5,9.91,1111122 
ENP,ioos.station.NOAA.NDBC:GBIF1:1,2017-11-05T01:00:00Z,25.3780,-81.0290,1.5,9.97,1111122 
ENP,ioos.station.NOAA.NDBC:GBIF1:1,2017-11-05T04:00:00Z,25.3780,-81.0290,1.5,9.91,1111122 
ENP,ioos.station.NOAA.NDBC:GBIF1:1,2017-11-05T05:00:00Z,25.3780,-81.0290,1.5,9.91,1111122 
ENP,ioos.station.NOAA.NDBC:GBIF1:1,2017-11-05T08:00:00Z,25.3780,-81.0290,1.5,11.0,1111122 
ENP,ioos.station.NOAA.NDBC:GBIF1:1,2017-11-05T09:00:00Z,25.3780,-81.0290,1.5,12.88,1111122 
ENP,ioos.station.NOAA.NDBC:GBIF1:1,2017-11-05T10:00:00Z,25.3780,-81.0290,1.5,12.17,1111122 
ENP,ioos.station.NOAA.NDBC:GBIF1:1,2017-11-05T13:00:00Z,25.3780,-81.0290,1.5,11.39,1111122 
ENP,ioos.station.NOAA.NDBC:GBIF1:1,2017-11-05T14:00:00Z,25.3780,-81.0290,1.5,11.32,1111122 
ENP,ioos.station.NOAA.NDBC:GBIF1:1,2017-11-05T15:00:00Z,25.3780,-81.0290,1.5,11.32,1111122 
ENP,ioos.station.NOAA.NDBC:GBIF1:1,2017-11-05T16:00:00Z,25.3780,-81.0290,1.5,11.39,1111122 
ENP,ioos.station.NOAA.NDBC:GBIF1:1,2017-11-05T17:00:00Z,25.3780,-81.0290,1.5,11.26,1111122 
ENP,ioos.station.NOAA.NDBC:GBIF1:1,2017-11-05T18:00:00Z,25.3780,-81.0290,1.5,11.26,1111122 
ENP,ioos.station.NOAA.NDBC:GBIF1:1,2017-11-05T19:00:00Z,25.3780,-81.0290,1.5,11.19,1111122 
ENP,ioos.station.NOAA.NDBC:GBIF1:1,2017-11-05T20:00:00Z,25.3780,-81.0290,1.5,4.63,1111122 
ENP,ioos.station.NOAA.NDBC:GBIF1:1,2017-11-05T21:00:00Z,25.3780,-81.0290,1.5,8.96,1111122 
ENP,ioos.station.NOAA.NDBC:GBIF1:1,2017-11-05T22:00:00Z,25.3780,-81.0290,1.5,11.84,1111122 
ENP,ioos.station.NOAA.NDBC:GBIF1:1,2017-11-05T23:00:00Z,25.3780,-81.0290,1.5,12.49,1111122 
ENP,ioos.station.NOAA.NDBC:GBIF1:1,2017-11-06T00:00:00Z,25.3780,-81.0290,1.5,10.87,1111122 
ENP,ioos.station.NOAA.NDBC:GBIF1:1,2017-11-06T01:00:00Z,25.3780,-81.0290,1.5,10.68,1111122 
ENP,ioos.station.NOAA.NDBC:GBIF1:1,2017-11-06T02:00:00Z,25.3780,-81.0290,1.5,10.68,1111122 
ENP,ioos.station.NOAA.NDBC:GBIF1:1,2017-11-06T04:00:00Z,25.3780,-81.0290,1.5,10.61,1111122 
ENP,ioos.station.NOAA.NDBC:GBIF1:1,2017-11-06T05:00:00Z,25.3780,-81.0290,1.5,10.61,1111122 
ENP,ioos.station.NOAA.NDBC:GBIF1:1,2017-11-06T07:00:00Z,25.3780,-81.0290,1.5,7.49,1111122 
ENP,ioos.station.NOAA.NDBC:GBIF1:1,2017-11-06T08:00:00Z,25.3780,-81.0290,1.5,10.94,1111122 
ENP,ioos.station.NOAA.NDBC:GBIF1:1,2017-11-06T09:00:00Z,25.3780,-81.0290,1.5,13.41,1111122 
ENP,ioos.station.NOAA.NDBC:GBIF1:1,2017-11-06T10:00:00Z,25.3780,-81.0290,1.5,14.46,1111122 
ENP,ioos.station.NOAA.NDBC:GBIF1:1,2017-11-06T12:00:00Z,25.3780,-81.0290,1.5,12.3,1111122 
ENP,ioos.station.NOAA.NDBC:GBIF1:1,2017-11-06T13:00:00Z,25.3780,-81.0290,1.5,12.17,1111122 
ENP,ioos.station.NOAA.NDBC:GBIF1:1,2017-11-06T14:00:00Z,25.3780,-81.0290,1.5,12.17,1111122 
ENP,ioos.station.NOAA.NDBC:GBIF1:1,2017-11-06T15:00:00Z,25.3780,-81.0290,1.5,12.1,1111122 
ENP,ioos.station.NOAA.NDBC:GBIF1:1,2017-11-06T16:00:00Z,25.3780,-81.0290,1.5,11.97,1111122 
ENP,ioos.station.NOAA.NDBC:GBIF1:1,2017-11-06T17:00:00Z,25.3780,-81.0290,1.5,11.84,1111122 
ENP,ioos.station.NOAA.NDBC:GBIF1:1,2017-11-06T18:00:00Z,25.3780,-81.0290,1.5,11.78,1111122 
ENP,ioos.station.NOAA.NDBC:GBIF1:1,2017-11-06T19:00:00Z,25.3780,-81.0290,1.5,11.71,1111122 
ENP,ioos.station.NOAA.NDBC:GBIF1:1,2017-11-06T20:00:00Z,25.3780,-81.0290,1.5,11.45,1111122 
ENP,ioos.station.NOAA.NDBC:GBIF1:1,2017-11-06T21:00:00Z,25.3780,-81.0290,1.5,5.99,1111122 
ENP,ioos.station.NOAA.NDBC:GBIF1:1,2017-11-06T22:00:00Z,25.3780,-81.0290,1.5,9.15,1111122 
ENP,ioos.station.NOAA.NDBC:GBIF1:1,2017-11-06T23:00:00Z,25.3780,-81.0290,1.5,11.71,1111122 
ENP,ioos.station.NOAA.NDBC:GBIF1:1,2017-11-07T00:00:00Z,25.3780,-81.0290,1.5,11.0,1111122 
ENP,ioos.station.NOAA.NDBC:GBIF1:1,2017-11-07T01:00:00Z,25.3780,-81.0290,1.5,10.74,1111122 
ENP,ioos.station.NOAA.NDBC:GBIF1:1,2017-11-07T02:00:00Z,25.3780,-81.0290,1.5,10.68,1111122 
ENP,ioos.station.NOAA.NDBC:GBIF1:1,2017-11-07T04:00:00Z,25.3780,-81.0290,1.5,10.74,1111122 
ENP,ioos.station.NOAA.NDBC:GBIF1:1,2017-11-07T05:00:00Z,25.3780,-81.0290,1.5,10.74,1111122 
ENP,ioos.station.NOAA.NDBC:GBIF1:1,2017-11-07T07:00:00Z,25.3780,-81.0290,1.5,10.81,1111122 
ENP,ioos.station.NOAA.NDBC:GBIF1:1,2017-11-07T08:00:00Z,25.3780,-81.0290,1.5,8.34,1111122 
ENP,ioos.station.NOAA.NDBC:GBIF1:1,2017-11-07T09:00:00Z,25.3780,-81.0290,1.5,9.15,1111122 
ENP,ioos.station.NOAA.NDBC:GBIF1:1,2017-11-07T10:00:00Z,25.3780,-81.0290,1.5,11.84,1111122 
ENP,ioos.station.NOAA.NDBC:GBIF1:1,2017-11-07T12:00:00Z,25.3780,-81.0290,1.5,10.81,1111122 
ENP,ioos.station.NOAA.NDBC:GBIF1:1,2017-11-07T13:00:00Z,25.3780,-81.0290,1.5,10.68,1111122 
ENP,ioos.station.NOAA.NDBC:GBIF1:1,2017-11-07T14:00:00Z,25.3780,-81.0290,1.5,10.61,1111122 
ENP,ioos.station.NOAA.NDBC:GBIF1:1,2017-11-07T15:00:00Z,25.3780,-81.0290,1.5,10.55,1111122 
ENP,ioos.station.NOAA.NDBC:GBIF1:1,2017-11-07T16:00:00Z,25.3780,-81.0290,1.5,10.48,1111122 
ENP,ioos.station.NOAA.NDBC:GBIF1:1,2017-11-07T17:00:00Z,25.3780,-81.0290,1.5,10.55,1111122 
ENP,ioos.station.NOAA.NDBC:GBIF1:1,2017-11-07T18:00:00Z,25.3780,-81.0290,1.5,10.55,1111122 
ENP,ioos.station.NOAA.NDBC:GBIF1:1,2017-11-07T19:00:00Z,25.3780,-81.0290,1.5,10.48,1111122 
ENP,ioos.station.NOAA.NDBC:GBIF1:1,2017-11-07T20:00:00Z,25.3780,-81.0290,1.5,10.48,1111122 
ENP,ioos.station.NOAA.NDBC:GBIF1:1,2017-11-07T21:00:00Z,25.3780,-81.0290,1.5,10.42,1111122 
ENP,ioos.station.NOAA.NDBC:GBIF1:1,2017-11-07T22:00:00Z,25.3780,-81.0290,1.5,4.21,1111122 
ENP,ioos.station.NOAA.NDBC:GBIF1:1,2017-11-07T23:00:00Z,25.3780,-81.0290,1.5,5.8,1111122 
ENP,ioos.station.NOAA.NDBC:GBIF1:1,2017-11-08T00:00:00Z,25.3780,-81.0290,1.5,9.15,1111122 
ENP,ioos.station.NOAA.NDBC:GBIF1:1,2017-11-08T01:00:00Z,25.3780,-81.0290,1.5,8.89,1111122 
ENP,ioos.station.NOAA.NDBC:GBIF1:1,2017-11-08T02:00:00Z,25.3780,-81.0290,1.5,8.89,1111122 
ENP,ioos.station.NOAA.NDBC:GBIF1:1,2017-11-08T05:00:00Z,25.3780,-81.0290,1.5,8.96,1111122 
ENP,ioos.station.NOAA.NDBC:GBIF1:1,2017-11-08T06:00:00Z,25.3780,-81.0290,1.5,8.96,1111122 
ENP,ioos.station.NOAA.NDBC:GBIF1:1,2017-11-08T08:00:00Z,25.3780,-81.0290,1.5,9.02,1111122 
ENP,ioos.station.NOAA.NDBC:GBIF1:1,2017-11-08T09:00:00Z,25.3780,-81.0290,1.5,6.72,1111122 
ENP,ioos.station.NOAA.NDBC:GBIF1:1,2017-11-08T10:00:00Z,25.3780,-81.0290,1.5,8.58,1111122 
ENP,ioos.station.NOAA.NDBC:GBIF1:1,2017-11-08T12:00:00Z,25.3780,-81.0290,1.5,10.87,1111122 
ENP,ioos.station.NOAA.NDBC:GBIF1:1,2017-11-08T13:00:00Z,25.3780,-81.0290,1.5,10.04,1111122 
ENP,ioos.station.NOAA.NDBC:GBIF1:1,2017-11-08T14:00:00Z,25.3780,-81.0290,1.5,10.04,1111122 
ENP,ioos.station.NOAA.NDBC:GBIF1:1,2017-11-08T15:00:00Z,25.3780,-81.0290,1.5,8.7,1111122 
ENP,ioos.station.NOAA.NDBC:GBIF1:1,2017-11-08T16:00:00Z,25.3780,-81.0290,1.5,8.64,1111122 
ENP,ioos.station.NOAA.NDBC:GBIF1:1,2017-11-08T17:00:00Z,25.3780,-81.0290,1.5,8.58,1111122 
ENP,ioos.station.NOAA.NDBC:GBIF1:1,2017-11-08T18:00:00Z,25.3780,-81.0290,1.5,8.02,1111122 
ENP,ioos.station.NOAA.NDBC:GBIF1:1,2017-11-08T19:00:00Z,25.3780,-81.0290,1.5,7.81,1111122 
ENP,ioos.station.NOAA.NDBC:GBIF1:1,2017-11-08T20:00:00Z,25.3780,-81.0290,1.5,7.73,1111122 
ENP,ioos.station.NOAA.NDBC:GBIF1:1,2017-11-08T21:00:00Z,25.3780,-81.0290,1.5,7.67,1111122 
ENP,ioos.station.NOAA.NDBC:GBIF1:1,2017-11-08T22:00:00Z,25.3780,-81.0290,1.5,4.07,1111122 
ENP,ioos.station.NOAA.NDBC:GBIF1:1,2017-11-08T23:00:00Z,25.3780,-81.0290,1.5,0.97,1111122 
ENP,ioos.station.NOAA.NDBC:GBIF1:1,2017-11-09T00:00:00Z,25.3780,-81.0290,1.5,3.61,1111122 
ENP,ioos.station.NOAA.NDBC:GBIF1:1,2017-11-09T01:00:00Z,25.3780,-81.0290,1.5,5.55,1111122 
ENP,ioos.station.NOAA.NDBC:GBIF1:1,2017-11-09T02:00:00Z,25.3780,-81.0290,1.5,5.71,1111122 
ENP,ioos.station.NOAA.NDBC:GBIF1:1,2017-11-09T04:00:00Z,25.3780,-81.0290,1.5,5.77,1111122 
ENP,ioos.station.NOAA.NDBC:GBIF1:1,2017-11-09T05:00:00Z,25.3780,-81.0290,1.5,5.83,1111122 
ENP,ioos.station.NOAA.NDBC:GBIF1:1,2017-11-09T07:00:00Z,25.3780,-81.0290,1.5,5.9,1111122 
ENP,ioos.station.NOAA.NDBC:GBIF1:1,2017-11-09T08:00:00Z,25.3780,-81.0290,1.5,5.93,1111122 
ENP,ioos.station.NOAA.NDBC:GBIF1:1,2017-11-09T09:00:00Z,25.3780,-81.0290,1.5,5.96,1111122 
ENP,ioos.station.NOAA.NDBC:GBIF1:1,2017-11-09T10:00:00Z,25.3780,-81.0290,1.5,2.57,1111122 
ENP,ioos.station.NOAA.NDBC:GBIF1:1,2017-11-09T12:00:00Z,25.3780,-81.0290,1.5,7.26,1111122 
ENP,ioos.station.NOAA.NDBC:GBIF1:1,2017-11-09T13:00:00Z,25.3780,-81.0290,1.5,7.65,1111122 
ENP,ioos.station.NOAA.NDBC:GBIF1:1,2017-11-09T14:00:00Z,25.3780,-81.0290,1.5,7.65,1111122 
ENP,ioos.station.NOAA.NDBC:GBIF1:1,2017-11-09T15:00:00Z,25.3780,-81.0290,1.5,7.64,1111122 
ENP,ioos.station.NOAA.NDBC:GBIF1:1,2017-11-09T16:00:00Z,25.3780,-81.0290,1.5,7.62,1111122 
ENP,ioos.station.NOAA.NDBC:GBIF1:1,2017-11-09T17:00:00Z,25.3780,-81.0290,1.5,7.62,1111122 
ENP,ioos.station.NOAA.NDBC:GBIF1:1,2017-11-09T18:00:00Z,25.3780,-81.0290,1.5,7.19,1111122 
ENP,ioos.station.NOAA.NDBC:GBIF1:1,2017-11-09T19:00:00Z,25.3780,-81.0290,1.5,7.15,1111122 
ENP,ioos.station.NOAA.NDBC:GBIF1:1,2017-11-09T20:00:00Z,25.3780,-81.0290,1.5,7.13,1111122 
ENP,ioos.station.NOAA.NDBC:GBIF1:1,2017-11-09T21:00:00Z,25.3780,-81.0290,1.5,7.11,1111122 
ENP,ioos.station.NOAA.NDBC:GBIF1:1,2017-11-09T22:00:00Z,25.3780,-81.0290,1.5,7.11,1111122 
ENP,ioos.station.NOAA.NDBC:GBIF1:1,2017-11-09T23:00:00Z,25.3780,-81.0290,1.5,6.89,1111122 
ENP,ioos.station.NOAA.NDBC:GBIF1:1,2017-11-10T00:00:00Z,25.3780,-81.0290,1.5,1.17,1111122 
ENP,ioos.station.NOAA.NDBC:GBIF1:1,2017-11-10T01:00:00Z,25.3780,-81.0290,1.5,3.03,1111122 
ENP,ioos.station.NOAA.NDBC:GBIF1:1,2017-11-10T02:00:00Z,25.3780,-81.0290,1.5,4.42,1111122 
ENP,ioos.station.NOAA.NDBC:GBIF1:1,2017-11-10T04:00:00Z,25.3780,-81.0290,1.5,4.61,1111122 
ENP,ioos.station.NOAA.NDBC:GBIF1:1,2017-11-10T05:00:00Z,25.3780,-81.0290,1.5,4.67,1111122 
ENP,ioos.station.NOAA.NDBC:GBIF1:1,2017-11-10T07:00:00Z,25.3780,-81.0290,1.5,4.81,1111122 
ENP,ioos.station.NOAA.NDBC:GBIF1:1,2017-11-10T08:00:00Z,25.3780,-81.0290,1.5,4.82,1111122 
ENP,ioos.station.NOAA.NDBC:GBIF1:1,2017-11-10T09:00:00Z,25.3780,-81.0290,1.5,4.83,1111122 
ENP,ioos.station.NOAA.NDBC:GBIF1:1,2017-11-10T10:00:00Z,25.3780,-81.0290,1.5,4.88,1111122 
ENP,ioos.station.NOAA.NDBC:GBIF1:1,2017-11-10T12:00:00Z,25.3780,-81.0290,1.5,2.79,1111122 
ENP,ioos.station.NOAA.NDBC:GBIF1:1,2017-11-10T13:00:00Z,25.3780,-81.0290,1.5,4.01,1111122 
ENP,ioos.station.NOAA.NDBC:GBIF1:1,2017-11-10T14:00:00Z,25.3780,-81.0290,1.5,4.72,1111122 
ENP,ioos.station.NOAA.NDBC:GBIF1:1,2017-11-10T15:00:00Z,25.3780,-81.0290,1.5,4.79,1111122 
ENP,ioos.station.NOAA.NDBC:GBIF1:1,2017-11-10T16:00:00Z,25.3780,-81.0290,1.5,4.86,1111122 
ENP,ioos.station.NOAA.NDBC:GBIF1:1,2017-11-10T17:00:00Z,25.3780,-81.0290,1.5,4.93,1111122 
ENP,ioos.station.NOAA.NDBC:GBIF1:1,2017-11-10T18:00:00Z,25.3780,-81.0290,1.5,5.01,1111122 
ENP,ioos.station.NOAA.NDBC:GBIF1:1,2017-11-10T19:00:00Z,25.3780,-81.0290,1.5,5.11,1111122 
ENP,ioos.station.NOAA.NDBC:GBIF1:1,2017-11-10T20:00:00Z,25.3780,-81.0290,1.5,5.23,1111122 
ENP,ioos.station.NOAA.NDBC:GBIF1:1,2017-11-10T21:00:00Z,25.3780,-81.0290,1.5,5.28,1111122 
ENP,ioos.station.NOAA.NDBC:GBIF1:1,2017-11-10T22:00:00Z,25.3780,-81.0290,1.5,5.31,1111122 
ENP,ioos.station.NOAA.NDBC:GBIF1:1,2017-11-10T23:00:00Z,25.3780,-81.0290,1.5,5.31,1111122 
ENP,ioos.station.NOAA.NDBC:GBIF1:1,2017-11-11T00:00:00Z,25.3780,-81.0290,1.5,5.28,1111122 
ENP,ioos.station.NOAA.NDBC:GBIF1:1,2017-11-11T01:00:00Z,25.3780,-81.0290,1.5,1.18,1111122 
ENP,ioos.station.NOAA.NDBC:GBIF1:1,2017-11-11T02:00:00Z,25.3780,-81.0290,1.5,1.1,1111122 
ENP,ioos.station.NOAA.NDBC:GBIF1:1,2017-11-11T04:00:00Z,25.3780,-81.0290,1.5,2.94,1111122 
ENP,ioos.station.NOAA.NDBC:GBIF1:1,2017-11-11T05:00:00Z,25.3780,-81.0290,1.5,3.01,1111122 
ENP,ioos.station.NOAA.NDBC:GBIF1:1,2017-11-11T07:00:00Z,25.3780,-81.0290,1.5,3.19,1111122 
ENP,ioos.station.NOAA.NDBC:GBIF1:1,2017-11-11T08:00:00Z,25.3780,-81.0290,1.5,3.3,1111122 
ENP,ioos.station.NOAA.NDBC:GBIF1:1,2017-11-11T09:00:00Z,25.3780,-81.0290,1.5,3.37,1111122 
ENP,ioos.station.NOAA.NDBC:GBIF1:1,2017-11-11T10:00:00Z,25.3780,-81.0290,1.5,3.27,1111122 
ENP,ioos.station.NOAA.NDBC:GBIF1:1,2017-11-11T12:00:00Z,25.3780,-81.0290,1.5,3.3,1111122 
ENP,ioos.station.NOAA.NDBC:GBIF1:1,2017-11-11T13:00:00Z,25.3780,-81.0290,1.5,2.89,1111122 
ENP,ioos.station.NOAA.NDBC:GBIF1:1,2017-11-11T14:00:00Z,25.3780,-81.0290,1.5,0.72,1111122 
ENP,ioos.station.NOAA.NDBC:GBIF1:1,2017-11-11T15:00:00Z,25.3780,-81.0290,1.5,0.75,1111122 
ENP,ioos.station.NOAA.NDBC:GBIF1:1,2017-11-11T16:00:00Z,25.3780,-81.0290,1.5,0.88,1111122 
ENP,ioos.station.NOAA.NDBC:GBIF1:1,2017-11-11T17:00:00Z,25.3780,-81.0290,1.5,1.1,1111122 
ENP,ioos.station.NOAA.NDBC:GBIF1:1,2017-11-11T18:00:00Z,25.3780,-81.0290,1.5,1.25,1111122 
ENP,ioos.station.NOAA.NDBC:GBIF1:1,2017-11-11T19:00:00Z,25.3780,-81.0290,1.5,1.12,1111122 
ENP,ioos.station.NOAA.NDBC:GBIF1:1,2017-11-11T20:00:00Z,25.3780,-81.0290,1.5,1.33,1111122 
ENP,ioos.station.NOAA.NDBC:GBIF1:1,2017-11-11T21:00:00Z,25.3780,-81.0290,1.5,1.67,1111122 
ENP,ioos.station.NOAA.NDBC:GBIF1:1,2017-11-11T22:00:00Z,25.3780,-81.0290,1.5,1.75,1111122 
ENP,ioos.station.NOAA.NDBC:GBIF1:1,2017-11-11T23:00:00Z,25.3780,-81.0290,1.5,1.79,1111122 
ENP,ioos.station.NOAA.NDBC:GBIF1:1,2017-11-12T00:00:00Z,25.3780,-81.0290,1.5,1.81,1111122 
ENP,ioos.station.NOAA.NDBC:GBIF1:1,2017-11-12T01:00:00Z,25.3780,-81.0290,1.5,0.73,1111122 
ENP,ioos.station.NOAA.NDBC:GBIF1:1,2017-11-12T02:00:00Z,25.3780,-81.0290,1.5,0.9,1111122 
ENP,ioos.station.NOAA.NDBC:GBIF1:1,2017-11-12T05:00:00Z,25.3780,-81.0290,1.5,3.37,1111122 
ENP,ioos.station.NOAA.NDBC:GBIF1:1,2017-11-12T08:00:00Z,25.3780,-81.0290,1.5,3.46,1111122 
ENP,ioos.station.NOAA.NDBC:GBIF1:1,2017-11-12T09:00:00Z,25.3780,-81.0290,1.5,3.46,1111122 
ENP,ioos.station.NOAA.NDBC:GBIF1:1,2017-11-12T10:00:00Z,25.3780,-81.0290,1.5,3.45,1111122 
ENP,ioos.station.NOAA.NDBC:GBIF1:1,2017-11-12T13:00:00Z,25.3780,-81.0290,1.5,3.26,1111122 
ENP,ioos.station.NOAA.NDBC:GBIF1:1,2017-11-12T14:00:00Z,25.3780,-81.0290,1.5,0.8,1111122 
ENP,ioos.station.NOAA.NDBC:GBIF1:1,2017-11-12T15:00:00Z,25.3780,-81.0290,1.5,1.0,1111122 
ENP,ioos.station.NOAA.NDBC:GBIF1:1,2017-11-12T16:00:00Z,25.3780,-81.0290,1.5,1.98,1111122 
ENP,ioos.station.NOAA.NDBC:GBIF1:1,2017-11-12T17:00:00Z,25.3780,-81.0290,1.5,2.21,1111122 
ENP,ioos.station.NOAA.NDBC:GBIF1:1,2017-11-12T18:00:00Z,25.3780,-81.0290,1.5,2.24,1111122 
ENP,ioos.station.NOAA.NDBC:GBIF1:1,2017-11-12T19:00:00Z,25.3780,-81.0290,1.5,2.26,1111122 
ENP,ioos.station.NOAA.NDBC:GBIF1:1,2017-11-12T20:00:00Z,25.3780,-81.0290,1.5,2.28,1111122 
ENP,ioos.station.NOAA.NDBC:GBIF1:1,2017-11-12T21:00:00Z,25.3780,-81.0290,1.5,2.31,1111122 
ENP,ioos.station.NOAA.NDBC:GBIF1:1,2017-11-12T22:00:00Z,25.3780,-81.0290,1.5,2.36,1111122 
ENP,ioos.station.NOAA.NDBC:GBIF1:1,2017-11-12T23:00:00Z,25.3780,-81.0290,1.5,2.38,1111122 
ENP,ioos.station.NOAA.NDBC:GBIF1:1,2017-11-13T00:00:00Z,25.3780,-81.0290,1.5,2.39,1111122 
ENP,ioos.station.NOAA.NDBC:GBIF1:1,2017-11-13T01:00:00Z,25.3780,-81.0290,1.5,2.37,1111122 
ENP,ioos.station.NOAA.NDBC:GBIF1:1,2017-11-13T02:00:00Z,25.3780,-81.0290,1.5,0.71,1111122 
ENP,ioos.station.NOAA.NDBC:GBIF1:1,2017-11-13T04:00:00Z,25.3780,-81.0290,1.5,1.86,1111122 
ENP,ioos.station.NOAA.NDBC:GBIF1:1,2017-11-13T05:00:00Z,25.3780,-81.0290,1.5,3.59,1111122 
ENP,ioos.station.NOAA.NDBC:GBIF1:1,2017-11-13T07:00:00Z,25.3780,-81.0290,1.5,4.14,1111122 
ENP,ioos.station.NOAA.NDBC:GBIF1:1,2017-11-13T08:00:00Z,25.3780,-81.0290,1.5,4.14,1111122 
ENP,ioos.station.NOAA.NDBC:GBIF1:1,2017-11-13T09:00:00Z,25.3780,-81.0290,1.5,4.11,1111122 
ENP,ioos.station.NOAA.NDBC:GBIF1:1,2017-11-13T10:00:00Z,25.3780,-81.0290,1.5,4.07,1111122 
ENP,ioos.station.NOAA.NDBC:GBIF1:1,2017-11-13T12:00:00Z,25.3780,-81.0290,1.5,4.0,1111122 
ENP,ioos.station.NOAA.NDBC:GBIF1:1,2017-11-13T13:00:00Z,25.3780,-81.0290,1.5,3.97,1111122 
ENP,ioos.station.NOAA.NDBC:GBIF1:1,2017-11-13T14:00:00Z,25.3780,-81.0290,1.5,3.97,1111122 
ENP,ioos.station.NOAA.NDBC:GBIF1:1,2017-11-13T15:00:00Z,25.3780,-81.0290,1.5,1.43,1111122 
ENP,ioos.station.NOAA.NDBC:GBIF1:1,2017-11-13T16:00:00Z,25.3780,-81.0290,1.5,0.83,1111122 
ENP,ioos.station.NOAA.NDBC:GBIF1:1,2017-11-13T17:00:00Z,25.3780,-81.0290,1.5,1.86,1111122 
ENP,ioos.station.NOAA.NDBC:GBIF1:1,2017-11-13T18:00:00Z,25.3780,-81.0290,1.5,3.07,1111122 
ENP,ioos.station.NOAA.NDBC:GBIF1:1,2017-11-13T19:00:00Z,25.3780,-81.0290,1.5,3.26,1111122 
ENP,ioos.station.NOAA.NDBC:GBIF1:1,2017-11-13T20:00:00Z,25.3780,-81.0290,1.5,3.26,1111122 
ENP,ioos.station.NOAA.NDBC:GBIF1:1,2017-11-13T21:00:00Z,25.3780,-81.0290,1.5,3.23,1111122 
ENP,ioos.station.NOAA.NDBC:GBIF1:1,2017-11-13T22:00:00Z,25.3780,-81.0290,1.5,3.22,1111122 
ENP,ioos.station.NOAA.NDBC:GBIF1:1,2017-11-13T23:00:00Z,25.3780,-81.0290,1.5,3.21,1111122 